Burnet, TX

12:31 AM CDT on June 24, 2017 (GMT -0500)
Burnet Municipal-Craddock

Weather History for KBMQ - March, 2013

Change the Weather History Date:

Sunday, March 24, 2013

  Actual Average Record
Temperature  
Mean Temperature 49 °F -  
Max Temperature 59 °F 68 °F 84 °F (2015)
Min Temperature 39 °F 48 °F 30 °F (2006)
Degree Days  
Heating Degree Days 16    
Moisture  
Dew Point 29 °F    
Average Humidity 50    
Maximum Humidity 87    
Minimum Humidity 23    
Precipitation  
Precipitation 0.00 in - - ()
Sea Level Pressure  
Sea Level Pressure 30.04 in    
Wind  
Wind Speed 17 mph (North)    
Max Wind Speed 26 mph    
Max Gust Speed 38 mph    
Visibility 10 miles    
Events      
Averages and records for this station are not official NWS values.
T = Trace of Precipitation, MM = Missing Value Source: NWS Daily Summary

Daily Weather History Graph

Daily Weather History Graph

Search for Another Location

Airport or City:

Trip Planner

Search our weather history database for the weather conditions in past years. The results will help you decide how hot, cold, wet, or windy it might be!

Date:

Astronomy

Mar. 24, 2013 Rise Set
Actual Time 7:31 AM CDT 7:47 PM CDT
Civil Twilight 7:07 AM CDT 8:11 PM CDT
Nautical Twilight 6:39 AM CDT 8:39 PM CDT
Astronomical Twilight 6:10 AM CDT 9:07 PM CDT
Moon 5:24 PM CDT 5:32 AM CDT
Length of Visible Light 13h 03m
Length of Day
12h 15m
Waxing Gibbous, 92% of the Moon is Illuminated
Mar 24
Waxing Gibbous
Mar 27
Full
Apr 2
Last Quarter
Apr 10
New
Apr 18
First Quarter

Hourly Weather History & Observations

Time (CDT) Temp. Windchill Dew Point Humidity Pressure Visibility Wind Dir Wind Speed Gust Speed Precip Events Conditions
12:53 AM 59.0 °F - 55.0 °F 87% 29.75 in 5.0 mi NNW 11.5 mph - N/A   Clear
1:16 AM 59.0 °F - 55.0 °F 87% 29.81 in 6.0 mi North 15.0 mph 20.7 mph N/A   Mostly Cloudy
1:53 AM 57.0 °F - 51.1 °F 81% 29.83 in 7.0 mi North 18.4 mph 29.9 mph N/A   Overcast
2:42 AM 54.0 °F - 46.0 °F 75% 29.91 in 10.0 mi North 25.3 mph 34.5 mph N/A   Overcast
2:53 AM 53.1 °F - 45.0 °F 74% 29.89 in 10.0 mi North 25.3 mph 35.7 mph N/A   Overcast
3:53 AM 48.9 °F - 39.9 °F 71% 29.95 in 10.0 mi North 17.3 mph 28.8 mph N/A   Overcast
4:45 AM 46.0 °F 37.2 °F 35.1 °F 66% 29.98 in 10.0 mi NNW 26.5 mph 38.0 mph N/A   Scattered Clouds
4:53 AM 45.0 °F 37.4 °F 35.1 °F 68% 29.96 in 10.0 mi NNW 18.4 mph 34.5 mph N/A   Scattered Clouds
5:53 AM 43.0 °F 35.1 °F 28.9 °F 58% 30.01 in 10.0 mi NW 17.3 mph 29.9 mph N/A   Clear
6:53 AM 41.0 °F 31.4 °F 25.0 °F 53% 30.04 in 10.0 mi NNW 21.9 mph 31.1 mph N/A   Clear
7:53 AM 39.0 °F 29.6 °F 23.0 °F 53% 30.09 in 10.0 mi NNW 18.4 mph 24.2 mph N/A   Clear
8:53 AM 39.9 °F 30.0 °F 23.0 °F 51% 30.14 in 10.0 mi NW 21.9 mph 29.9 mph N/A   Clear
9:53 AM 42.1 °F 32.1 °F 21.9 °F 45% 30.16 in 10.0 mi NNW 25.3 mph 33.4 mph N/A   Clear
10:53 AM 45.0 °F 36.0 °F 21.0 °F 39% 30.16 in 10.0 mi NNW 25.3 mph 32.2 mph N/A   Clear
11:53 AM 48.0 °F - 21.0 °F 34% 30.16 in 10.0 mi North 20.7 mph 27.6 mph N/A   Unknown
12:53 PM 51.1 °F - 21.0 °F 31% 30.15 in 10.0 mi NNW 21.9 mph 28.8 mph N/A   Clear
1:53 PM 53.1 °F - 21.0 °F 29% 30.12 in 10.0 mi North 17.3 mph 27.6 mph N/A   Clear
2:53 PM 55.0 °F - 21.0 °F 27% 30.10 in 10.0 mi North 16.1 mph 26.5 mph N/A   Clear
3:53 PM 55.9 °F - 19.9 °F 25% 30.08 in 10.0 mi North 15.0 mph 27.6 mph N/A   Clear
4:53 PM 57.0 °F - 19.9 °F 24% 30.06 in 10.0 mi North 12.7 mph 23.0 mph N/A   Clear
5:53 PM 57.0 °F - 19.0 °F 23% 30.06 in 10.0 mi North 13.8 mph 23.0 mph N/A   Clear
7:53 PM 51.1 °F - 19.9 °F 29% 30.09 in 10.0 mi North 6.9 mph - N/A   Clear
8:53 PM 46.9 °F - 21.0 °F 36% 30.12 in 10.0 mi North 4.6 mph - N/A   Clear
9:53 PM 45.0 °F 42.6 °F 23.0 °F 42% 30.15 in 10.0 mi North 4.6 mph - N/A   Clear
10:53 PM 43.0 °F 39.5 °F 23.0 °F 45% 30.17 in 10.0 mi North 5.8 mph - N/A   Clear
11:53 PM 41.0 °F 37.1 °F 23.0 °F 49% 30.18 in 10.0 mi NNE 5.8 mph - N/A   Clear